Location: La Chapelle-Erbr�e
(48.1333°N, 1.1000°W)
Time: 08:34:48
(UTC+00:00)

Daily predictions for brighter satellites

Satellite Brightness Start Highest point End
(mag) Time Altitude Azimuth Time Altitude Azimuth Time Altitude Azimuth
Cosmos 2278 Rocket 2.4 20:27:15 10° SSW 20:32:56 82° WNW 20:38:40 10° NNE
Cosmos 1741 Rocket 4.2 20:28:43 10° NNW 20:33:56 64° ENE 20:39:07 10° SSE
Okean 2 Rocket 3.1 20:29:57 10° N 20:34:24 83° E 20:38:48 10° S
Resurs 01 Rocket 1.7 20:30:13 10° SSE 20:34:40 88° WSW 20:39:10 10° NNW
STARLINK-1111 4.0 20:31:12 10° WNW 20:35:20 62° NNE 20:39:26 10° ESE
STARLINK-1200 3.6 20:32:09 10° WSW 20:36:17 80° SSE 20:40:26 10° ENE
Meteor 1-12 Rocket 4.3 20:31:58 10° N 20:37:40 85° E 20:43:23 10° SSE
STARLINK-1078 4.1 20:34:00 10° WNW 20:38:00 49° SW 20:42:01 10° SE
MetOp-B 4.3 20:33:19 10° SSE 20:38:37 67° ENE 20:43:57 10° N
SL-8 R/B 3.7 20:35:27 10° W 20:40:17 85° SSW 20:45:07 10° ESE
STARLINK-1073 4.0 20:36:12 10° WNW 20:40:20 65° NNE 20:44:27 10° ESE
STARLINK-1192 3.6 20:37:08 10° WSW 20:41:17 85° SSE 20:45:27 10° ENE
Cosmos 2279 Rocket 4.0 20:36:07 10° N 20:42:24 78° E 20:48:37 10° SSE
STARLINK-1108 4.2 20:39:00 10° WNW 20:42:58 46° SW 20:46:56 10° SE
Cosmos 1850 Rocket 4.1 20:38:09 10° NNW 20:43:33 79° ENE 20:48:53 10° SSE
ATLAS CENTAUR R/B 3.7 20:42:47 10° NW 20:43:41 12° NNW 20:44:30 10° N
Cosmos 371 Rocket 3.3 20:40:11 10° SSW 20:45:01 79° ESE 20:49:56 10° NNE
SPOT 3 Rocket 4.4 20:40:14 10° S 20:45:13 49° W 20:50:14 10° NNW
STARLINK-1121 3.9 20:41:10 10° WNW 20:45:19 68° NNE 20:49:27 10° ESE
SL-4 R/B 4.1 20:44:24 10° SSE 20:46:11 12° SE 20:47:59 10° ESE
STARLINK-1244 3.6 20:42:06 10° WSW 20:46:15 90° SSE 20:50:25 10° ENE
STARLINK-1071 4.3 20:44:00 10° WNW 20:47:56 42° SW 20:51:51 10° SSE
Terra 3.3 20:45:01 10° ESE 20:48:46 23° ENE 20:52:30 10° N
Abrixas rocket 2.0 20:45:57 10° W 20:48:53 61° SSW 20:51:47 10° ESE
Cosmos 2151 Rocket 3.6 20:44:35 10° N 20:49:09 82° E 20:53:41 10° S
Spot 2 Rocket 3.6 20:44:45 10° SSE 20:49:44 67° ENE 20:54:46 10° N
STARLINK-1106 3.8 20:46:10 10° WNW 20:50:19 72° NNE 20:54:28 10° ESE
ERBS 3.9 20:47:30 10° W 20:50:37 38° NNW 20:53:45 10° NE
SPOT 1/Viking Rocket 3.9 20:45:41 10° SE 20:50:40 51° ENE 20:55:39 10° N
STARLINK-1138 3.7 20:47:05 10° WSW 20:51:14 85° NNW 20:55:24 10° ENE
STARLINK-1110 4.4 20:47:48 10° WNW 20:51:42 40° SW 20:55:32 10° SSE
STARLINK-1112 3.8 20:51:07 10° WNW 20:55:17 76° NNE 20:59:26 10° ESE
STARLINK-1143 3.7 20:52:03 10° WSW 20:56:12 81° NNW 21:00:22 10° ENE
Aureole 2 4.5 20:55:00 10° NNW 20:58:06 51° ENE 21:00:36 13° SE
STARLINK-1128 3.7 20:56:06 10° WNW 21:00:15 80° NNE 21:04:25 10° ESE
STARLINK-1241 3.8 20:57:04 10° WSW 21:01:13 77° NNW 21:05:23 10° ENE
deb Kosmos-1763 4.0 21:00:13 10° NNW 21:03:49 71° ENE 21:06:57 13° SSE
Cosmos 1300 Rocket 4.2 20:59:33 10° NNW 21:03:56 57° W 21:08:16 10° S
Cosmos 1331 Rocket 4.4 20:59:16 10° S 21:04:03 41° ESE 21:08:55 10° NE
Aureole 2 Rocket 2.2 21:01:45 10° S 21:04:48 54° ESE 21:07:43 10° NNE
STARLINK-1113 3.7 21:01:05 10° WNW 21:05:15 84° NNE 21:09:15 11° ESE
STARLINK-1239 3.9 21:02:03 10° WSW 21:06:12 73° NNW 21:10:21 10° ENE
Cosmos 1437 Rocket 2.7 21:06:05 10° S 21:09:52 89° E 21:13:44 10° NNE
STARLINK-1119 3.6 21:06:05 10° WNW 21:10:15 88° NNE 21:14:04 12° ESE
STARLINK-1240 4.0 21:07:01 10° WSW 21:11:10 70° NNW 21:15:18 10° ENE
Cosmos 1378 3.9 21:09:41 13° SSE 21:12:31 33° E 21:15:54 10° NNE
ISS -1.7 21:12:27 10° W 21:14:50 18° SW 21:17:02 11° S
STARLINK-1114 3.6 21:11:03 10° WNW 21:15:13 87° SSW 21:18:49 13° ESE
STARLINK-1203 4.1 21:11:52 10° WSW 21:16:03 67° NNW 21:20:14 10° ENE
STARLINK-1216 4.1 21:12:01 10° WSW 21:16:08 66° NNW 21:20:17 10° ENE
Meteor 1-15 Rocket 4.4 21:10:13 10° N 21:16:12 86° E 21:21:57 11° SSE
Cosmos 304 Rocket 3.7 21:11:39 10° SSW 21:16:25 75° ESE 21:21:14 10° NNE
USA 215 4.4 21:11:25 10° ENE 21:17:31 43° N 21:23:36 10° WNW
Lacrosse 5 3.3 21:13:37 10° WNW 21:17:51 27° SW 21:22:05 10° S
STARLINK-1130 (DARKSAT) 3.6 21:16:02 10° WNW 21:20:12 82° SSW 21:23:37 15° ESE
Cosmos 1092 Rocket 4.5 21:15:31 12° SSE 21:20:49 43° E 21:26:35 10° NNE
NOSS 2-2 (D) 3.4 21:17:34 10° SSW 21:21:00 46° ESE 21:24:47 10° NE
STARLINK-1237 4.1 21:17:01 10° WSW 21:21:08 63° NNW 21:25:16 10° ENE
CENTAUR R/B 3.7 21:14:45 10° NW 21:22:20 52° NE 21:30:46 10° ESE
CZ-2C R/B 4.4 21:18:22 10° N 21:23:27 36° WNW 21:28:31 10° SW
Cosmos 1674 Rocket 3.7 21:20:41 10° SSW 21:25:03 77° W 21:29:30 10° N
STARLINK-1084 3.6 21:21:01 10° WNW 21:25:11 77° SSW 21:28:24 16° SE
ATLAS 3B R/B 4.1 21:19:22 10° NW 21:25:18 32° NNE 21:31:22 10° E
STARLINK-1202 4.2 21:22:01 10° W 21:26:08 61° NNW 21:30:15 10° ENE
SL-27 R/B 3.8 21:24:01 10° N 21:27:11 28° ENE 21:29:28 15° ESE
NOSS 3-2 (C) 4.5 21:20:30 10° NW 21:27:43 57° NE 21:35:37 11° ESE
Cosmos 1378 Rocket 3.5 21:23:31 10° S 21:27:56 88° E 21:32:20 10° N
Cosmos 1766 3.6 21:26:09 10° N 21:30:04 54° ENE 21:32:47 19° SSE
STARLINK-1098 3.6 21:26:00 10° WNW 21:30:09 72° SSW 21:33:11 18° SE
STARLINK-1123 3.6 21:30:59 10° WNW 21:35:06 68° SSW 21:37:57 19° SE
IGS 5A 4.1 21:31:57 11° S 21:35:51 51° W 21:39:56 10° NNW
STARLINK-1246 4.4 21:32:03 10° W 21:36:08 56° NNW 21:40:14 10° ENE
Cosmos 1943 Rocket 2.5 21:31:58 10° S 21:37:15 47° ESE 21:42:36 10° NE
Cosmos 1900 4.4 21:32:14 10° NW 21:37:18 87° NE 21:41:01 19° SE
Cosmos 2297 3.8 21:31:38 10° SSW 21:37:19 85° WNW 21:43:05 10° NNE
NOSS 2-2 (E) 3.1 21:34:39 10° SW 21:38:14 85° SE 21:42:22 10° NE
STARLINK-1097 3.7 21:36:00 10° WNW 21:40:06 63° SSW 21:42:45 21° SE
STARLINK-1224 4.4 21:37:03 10° W 21:41:07 54° NNW 21:45:12 10° ENE
Cosmos 2082 Rocket 3.7 21:37:30 10° NW 21:42:21 29° WSW 21:47:11 10° SSW
SeaSat 1 4.1 21:40:46 10° ENE 21:43:37 15° ESE 21:44:34 14° ESE
STARLINK-1099 3.8 21:40:58 10° WNW 21:45:03 59° SW 21:47:31 22° SE
Cosmos 1461 3.8 21:41:19 10° SW 21:45:25 54° NW 21:49:46 10° NNE
Cosmos 1975 Rocket 3.4 21:44:36 20° SSE 21:47:29 50° E 21:51:45 10° NNE
STARLINK-1212 4.1 21:44:45 10° WNW 21:47:43 39° NNE 21:50:40 10° E
STARLINK-1105 4.1 21:45:13 10° WNW 21:48:11 39° NNE 21:51:08 10° E
STARLINK-1247 4.1 21:46:05 10° WNW 21:49:05 40° NNE 21:52:03 10° E
STARLINK-1227 4.1 21:46:35 10° WNW 21:49:33 40° NNE 21:52:31 10° E
BREEZE-M DEB (TANK) 4.0 21:31:33 10° WSW 21:49:53 72° SSE 21:54:15 10° ENE
STARLINK-1104 3.9 21:45:57 10° WNW 21:50:00 55° SW 21:52:18 24° SE
STARLINK-1226 4.1 21:47:27 10° WNW 21:50:25 40° NNE 21:53:24 10° E
BREEZE-M DEB (TANK) 3.2 21:46:26 10° W 21:51:00 73° N 21:54:32 10° E
STARLINK-1215 4.1 21:48:20 10° WNW 21:51:20 40° NNE 21:54:16 10° E
STARLINK-1217 4.1 21:50:09 10° WNW 21:53:09 41° NNE 21:56:00 11° E
Cosmos 2369 Rocket 2.5 21:49:04 15° S 21:53:26 46° ESE 21:58:48 10° NE
STARLINK-1229 4.0 21:51:04 10° WNW 21:54:03 41° NNE 21:56:54 11° E
STARLINK-1270 4.0 21:51:58 10° WNW 21:54:58 42° NNE 21:57:45 11° E
STARLINK-1144 3.9 21:50:57 10° WNW 21:54:59 51° SW 21:57:05 25° SSE
STARLINK-1189 4.0 21:53:45 10° WNW 21:56:46 42° NNE 21:59:29 12° E
SPOT 5 3.3 21:53:31 17° S 21:57:34 70° WSW 22:02:57 10° NNW
STARLINK-1188 4.0 21:54:39 10° WNW 21:57:41 43° NNE 22:00:22 12° E
STARLINK-1187 3.8 21:55:46 10° WNW 21:58:46 45° NNE 22:01:14 14° E
ATLAS CENTAUR R/B 3.3 21:59:35 15° ESE 21:59:35 15° ESE 22:01:41 10° ENE
STARLINK-1103 4.0 21:55:57 10° WNW 21:59:56 47° SW 22:01:51 26° SSE
STARLINK-1191 3.9 21:57:07 10° WNW 22:00:06 43° NNE 22:02:40 13° E
STARLINK-1221 3.9 21:58:03 10° WNW 22:01:04 44° NNE 22:03:35 13° E
STARLINK-1222 3.9 21:58:55 10° WNW 22:01:55 44° NNE 22:04:23 14° E
STARLINK-1214 3.9 21:59:48 10° WNW 22:02:49 44° NNE 22:05:16 14° E
NOSS 2-2 (C) 3.4 21:59:18 10° SW 22:02:52 71° NW 22:06:57 10° NE
ERS-1 Rocket 3.5 21:59:40 16° S 22:03:36 53° W 22:08:32 10° NNW
EXPRESS MD2 3.7 22:00:23 10° WSW 22:03:55 88° S 22:11:09 10° ENE
Cosmos 1025 Rocket 4.2 22:02:57 21° ESE 22:04:29 26° E 22:08:05 10° NNE
Okean 2 3.3 22:02:00 20° S 22:04:48 85° E 22:08:59 10° N
STARLINK-1101 4.1 22:00:56 10° WNW 22:04:53 44° SW 22:06:38 27° SSE
Meteor 1-22 Rocket 4.3 21:59:08 10° NNW 22:05:04 81° W 22:09:05 20° S
Cosmos 2026 Rocket 4.1 22:00:23 18° S 22:05:11 68° E 22:11:30 10° NNE
ATLAS 2AS CENTAUR R/B 3.5 22:00:30 15° S 22:06:34 41° ESE 22:13:52 10° NE
BREEZE M DEB (TANK) 2.0 22:02:21 10° WSW 22:06:35 85° SSE 22:08:32 12° ENE
Cosmos 1553 Rocket 4.4 22:01:41 10° N 22:07:50 53° ENE 22:11:43 22° SE
BREEZE-M DEB (TANK) 4.4 21:51:08 10° WNW 22:08:14 85° SSW 22:11:56 16° ESE
STARLINK-1228 3.6 22:05:14 10° WNW 22:08:42 60° NNE 22:11:08 18° E
Cosmos 1953 4.0 22:05:48 10° NNE 22:08:58 22° ENE 22:10:41 17° ESE
NOSS 3-2 (A) 4.1 22:01:44 10° NW 22:09:12 75° SW 22:15:11 21° SSE
STARLINK-1102 4.2 22:05:57 10° WNW 22:09:51 40° SW 22:11:26 28° S
Cosmos 1805 4.1 22:06:07 10° NNW 22:09:53 46° W 22:12:24 19° SSW
Cosmos 1470 3.2 22:06:30 10° N 22:10:15 46° ENE 22:11:51 28° SE
STARLINK-1235 3.5 22:07:58 10° WNW 22:11:10 57° NNE 22:13:11 20° E
Resurs 01 Rocket 4.5 22:11:01 10° W 22:11:51 10° W 22:12:40 10° WNW
Cosmos 968 Rocket 3.6 22:09:26 10° NNW 22:14:35 64° ENE 22:17:31 25° SE
STARLINK-1111 4.4 22:10:57 10° WNW 22:14:48 38° SW 22:16:12 28° S
Cosmos 1455 Rocket 3.0 22:12:49 10° N 22:17:12 89° WSW 22:19:25 28° S
STARLINK-1073 4.5 22:15:59 10° WNW 22:19:46 35° SW 22:20:59 28° S
USA 238 DEB 4.0 22:13:57 10° NW 22:21:03 64° WSW 22:25:52 23° SSE
ATLAS 5 CENTAUR R/B 2.8 22:21:46 26° ESE 22:21:46 26° ESE 22:23:34 10° ENE
USA 238 4.0 22:14:03 10° NW 22:21:10 65° SW 22:25:58 23° SSE
SL-8 R/B 4.4 22:18:07 10° W 22:22:33 38° SSW 22:24:13 29° S
Cosmos 1758 3.6 22:19:45 10° N 22:23:47 58° ENE 22:25:25 32° SE
Abrixas rocket 4.1 22:22:04 10° WSW 22:23:18 15° SW 22:23:18 15° SW
SL-4 R/B 2.5 22:20:26 10° SW 22:25:02 49° SE 22:29:43 10° ENE
Terra 2.4 22:23:15 21° SSW 22:26:12 50° W 22:30:51 10° NNW
Cosmos 1842 3.4 22:24:08 25° SSW 22:26:20 72° W 22:30:14 10° N
Meteor 2-13 Rocket 4.4 22:23:31 20° S 22:27:59 86° E 22:34:11 10° N
STARLINK-1234 3.1 22:25:43 10° WNW 22:28:59 75° NNE 22:30:17 33° ESE
Cosmos 1503 Rocket 4.1 22:29:26 10° NNW 22:34:45 70° ENE 22:37:35 28° SE
STARLINK-1209 2.9 22:31:52 10° WNW 22:35:11 85° NNE 22:36:13 41° ESE
Cosmos 2263 4.1 22:39:18 20° SSW 22:43:14 79° ESE 22:48:52 10° NNE
STARLINK-1238 4.5 22:40:14 10° WNW 22:44:17 50° NNE 22:48:20 10° E
Cosmos 1536 Rocket 3.6 22:45:43 37° SSE 22:47:16 63° E 22:51:36 10° NNE
Cosmos 1674 4.3 22:48:20 20° E 22:48:48 21° E 22:51:42 10° NE
STARLINK-1201 4.4 22:45:13 10° WNW 22:49:17 52° NNE 22:53:20 10° E
Cosmos 1271 Rocket 2.7 22:49:29 38° SSW 22:50:54 85° W 22:54:52 10° N
Cosmos 1242 Rocket 3.1 22:49:25 29° SW 22:51:02 56° WNW 22:54:41 10° N
STARLINK-60 2.7 22:52:21 31° WSW 22:53:44 84° SSE 22:56:56 10° ENE
Cosmos 1544 Rocket 4.0 22:49:43 10° NNW 22:53:56 51° W 22:55:47 30° SSW
Meteor 1-21 4.4 22:50:09 20° SSW 22:54:03 68° WNW 22:59:40 10° N
Cosmos 1354 Rocket 4.0 22:48:45 10° NNW 22:54:06 87° ENE 22:56:35 33° SSE
STARLINK-1206 4.3 22:50:13 10° WNW 22:54:17 54° NNE 22:58:21 10° E
COSMOS 2455 3.2 22:52:50 30° S 22:55:24 47° ESE 23:01:09 10° NE
Spot 4 3.8 22:53:29 34° SSE 22:55:37 85° ENE 23:00:30 10° NNW
Cosmos 1833 4.2 22:52:53 10° NNW 22:58:32 73° WSW 23:01:10 32° SSE
STARLINK-1205 4.2 22:55:11 10° WNW 22:59:16 56° NNE 23:03:07 11° E
USA 215 3.5 22:53:31 10° ESE 23:00:02 70° NNE 23:06:33 10° NW
Cosmos 2297 Rocket 4.2 22:56:30 10° N 23:00:50 22° NE 23:05:08 10° E
Cosmos 1707 2.7 22:59:44 42° SSW 23:00:59 82° W 23:04:54 10° N
SL-27 R/B 4.2 22:59:19 10° NW 23:02:10 22° W 23:03:01 20° WSW
Helios 1A 4.4 23:01:35 21° ESE 23:03:24 29° ENE 23:07:03 10° N
STARLINK-1218 4.2 23:00:11 10° WNW 23:04:17 58° NNE 23:07:55 13° E
Cosmos 1174 3.7 23:06:36 47° ESE 23:06:36 47° ESE 23:10:02 10° NE
Cosmos 1726 2.0 23:02:47 10° N 23:06:32 81° E 23:07:20 53° SSE
STARLINK-1254 4.1 23:05:09 10° WNW 23:09:16 60° NNE 23:12:41 14° E
ALOS 2 2.9 23:07:47 36° SE 23:09:23 59° ENE 23:13:43 10° N
COSMOS 2487 2.3 23:06:32 10° NNW 23:10:01 81° ENE 23:10:32 61° SE
CENTAUR R/B 3.4 23:05:31 10° NW 23:13:25 58° WSW 23:18:17 28° S
STARLINK-1231 4.0 23:10:07 10° WNW 23:14:15 63° NNE 23:17:27 16° E
Meteor 1-16 Rocket 4.1 23:09:56 10° N 23:15:29 85° E 23:17:49 36° SSE
Cosmos 1867 3.7 23:11:14 10° NW 23:16:39 63° WSW 23:18:45 36° S
ATLAS 3B R/B 2.7 23:10:01 10° NW 23:16:50 89° NE 23:21:09 26° SE
EO 1 Del DPAF 3.7 23:14:25 10° N 23:18:08 55° WNW 23:19:30 34° SW
FALCON 9 DEB 4.4 23:20:08 29° E 23:20:08 29° E 23:22:07 10° ENE
STARLINK-1232 3.9 23:15:07 10° WNW 23:19:15 66° NNE 23:22:15 18° E
Cosmos 1992 Rocket 4.2 23:16:14 24° SW 23:19:25 69° WNW 23:24:39 10° NNE
Cosmos 1606 Rocket 4.0 23:16:00 10° N 23:20:15 51° ENE 23:21:36 36° SE
Cosmos 1943 Rocket 3.7 23:16:09 10° WSW 23:21:10 34° NW 23:26:15 10° NNE
SeaSat 1 2.4 23:16:45 10° NNE 23:21:43 87° WNW 23:24:20 29° SSW
STARLINK-29 3.0 23:24:02 63° E 23:24:02 63° E 23:26:50 10° ENE
STARLINK-1212 3.6 23:20:34 10° WNW 23:22:54 41° W 23:22:54 41° W
STARLINK-1105 3.7 23:21:03 10° WNW 23:23:20 40° W 23:23:20 40° W
STARLINK-1208 3.8 23:20:05 10° WNW 23:24:14 69° NNE 23:27:00 20° ESE
NOSS 5 (C) 4.4 23:21:40 10° NW 23:24:51 83° NE 23:25:33 55° SE
STARLINK-1247 3.7 23:21:55 10° WNW 23:24:14 40° W 23:24:14 40° W
STARLINK-1227 3.7 23:22:25 10° WNW 23:24:40 39° W 23:24:40 39° W
STARLINK-1226 3.8 23:23:16 10° WNW 23:25:31 38° W 23:25:31 38° W
ATLAS CENTAUR R/B 3.3 23:25:17 10° NNW 23:26:58 20° NNE 23:29:22 10° E
STARLINK-1215 3.8 23:24:10 10° WNW 23:26:24 38° W 23:26:24 38° W
NOSS 3-4 (A) 3.4 23:23:52 16° SW 23:28:47 84° NW 23:35:14 10° NE
NOSS 3-4 (C) 3.4 23:24:01 16° SW 23:28:53 84° NW 23:35:21 10° NE
STARLINK-1217 3.9 23:25:59 10° WNW 23:28:07 35° W 23:28:07 35° W
STARLINK-1271 3.8 23:25:05 10° WNW 23:29:15 73° NNE 23:31:48 22° ESE
STARLINK-1229 3.9 23:26:55 10° WNW 23:29:01 35° W 23:29:01 35° W
RESURS DK-1 2.9 23:29:48 39° SE 23:30:08 40° ESE 23:34:02 10° NE
STARLINK-1270 4.0 23:27:48 10° WNW 23:29:53 34° W 23:29:53 34° W
STARLINK-1189 4.1 23:29:37 10° WNW 23:31:36 32° W 23:31:36 32° W
Meteor 2-10 4.4 23:27:56 10° NNW 23:32:47 49° W 23:34:44 32° SSW
STARLINK-1188 4.1 23:30:31 10° WNW 23:32:29 31° W 23:32:29 31° W
Cosmos 2084 4.1 23:33:36 38° SE 23:33:53 39° ESE 23:38:03 10° NE
Cosmos 2315 Rocket 3.9 23:27:45 10° N 23:34:00 84° E 23:36:59 33° SSE
STARLINK-1154 3.7 23:30:04 10° WNW 23:34:13 77° NNE 23:36:35 25° ESE
STARLINK-1187 4.4 23:31:41 10° WNW 23:33:22 26° W 23:33:22 26° W
BREEZE-M R/B 4.3 23:31:45 27° SSW 23:34:39 38° SSE 23:38:44 10° E
STARLINK-1191 4.3 23:32:58 10° WNW 23:34:47 28° W 23:34:47 28° W
Cosmos 1626 3.5 23:36:00 26° ESE 23:36:25 26° E 23:39:33 10° NNE
STARLINK-1221 4.3 23:33:56 10° WNW 23:35:42 28° W 23:35:42 28° W
Cosmos 1340 Rocket 3.3 23:33:14 10° NNW 23:37:10 49° W 23:38:06 40° SW
Cosmos 2369 Rocket 3.6 23:32:27 10° WSW 23:37:36 35° NW 23:42:46 10° NNE
ATLAS CENTAUR R/B 1.5 23:35:43 32° SW 23:37:41 76° NW 23:41:48 10° NE
STARLINK-1222 4.4 23:34:46 10° WNW 23:36:30 27° W 23:36:30 27° W
Cosmos 2227 Rocket 3.7 23:33:04 10° NNW 23:38:07 31° NE 23:43:08 10° ESE
STARLINK-1214 4.4 23:35:40 10° WNW 23:37:22 26° W 23:37:22 26° W
STARLINK-1197 3.6 23:35:02 10° WNW 23:39:11 81° NNE 23:41:21 27° ESE
Cosmos 1908 3.1 23:37:59 10° N 23:41:49 87° W 23:42:29 60° S
Cosmos 1025 Rocket 4.4 23:39:50 20° WSW 23:41:58 32° WNW 23:45:52 10° N
STARLINK-1198 3.6 23:40:00 10° WNW 23:44:10 85° NNE 23:46:07 30° ESE
Aureole 3 3.2 23:41:27 10° NNW 23:44:31 48° W 23:44:31 48° W
Cosmos 1953 3.4 23:41:50 10° NNW 23:45:27 33° W 23:46:22 29° WSW
SL-4 R/B 3.2 23:50:08 16° NW 23:50:08 16° NW 23:50:54 10° NW
STARLINK-1199 3.5 23:45:00 10° WNW 23:49:10 90° NNE 23:50:55 34° ESE
Cosmos 1656 Rocket 4.4 23:46:09 15° SW 23:50:35 49° NW 23:55:59 10° NNE
Landsat 4 3.9 23:46:58 10° NNE 23:50:36 50° E 23:51:00 48° SE
KORONAS-FOTON 3.8 23:52:25 56° SSW 23:53:08 78° WNW 23:57:00 10° N
STARLINK-1210 3.5 23:49:58 10° WNW 23:54:08 86° SSW 23:55:42 37° ESE
